Overview Statistics Trail Chart Weather Telemetry Raw packets
 

This is the latest recevied weather packets stored in our database for station/object KK7MLS-13. If no packets are shown the sender has not sent any weather packets the latest 10 day(s).

<< 4 5 6 7 8 9 10 >>
Time Temp. Humidity Pressure Rain* Wind** Luminosity Snow
1788648396 20.56° C 56% 1016.2 hPa 0 mm - 125 W/m² -
1788648096 21.11° C 56% 1016.3 hPa 0 mm - 107 W/m² -
1788647793 21.11° C 56% 1016.3 hPa 0 mm - 89 W/m² -
1788647489 21.11° C 58% 1016.3 hPa 0 mm - 107 W/m² -
1788647185 20.56° C 58% 1016.3 hPa 0 mm - 219 W/m² -
1788646879 21.67° C 54% 1016.4 hPa 0 mm - 107 W/m² -
1788646575 22.22° C 55% 1016.3 hPa 0 mm - 123 W/m² -
1788646272 22.78° C 51% 1016.4 hPa 0 mm - 143 W/m² -
1788645967 21.67° C 55% 1016.5 hPa 0 mm - 417 W/m² -
1788645663 21.11° C 56% 1016.5 hPa 0 mm - 212 W/m² -
1788645362 21.11° C 56% 1016.6 hPa 0 mm - 141 W/m² -
1788645058 21.11° C 55% 1016.7 hPa 0 mm - 432 W/m² -
1788644754 21.11° C 57% 1016.5 hPa 0 mm - 167 W/m² -
1788644449 21.11° C 54% 1016.7 hPa 0 mm - 147 W/m² -
1788644144 20.56° C 57% 1016.7 hPa 0 mm - 181 W/m² -
1788643840 20.56° C 57% 1016.7 hPa 0 mm - 177 W/m² -
1788643540 20.56° C 56% 1016.7 hPa 0 mm - 118 W/m² -
1788643239 20.56° C 55% 1016.8 hPa 0 mm - 88 W/m² -
1788642953 20.56° C 55% 1016.7 hPa 0 mm - 134 W/m² -
1788642631 20.56° C 59% 1016.6 hPa 0 mm - 176 W/m² -
1788642326 21.11° C 54% 1016.9 hPa 0 mm - 144 W/m² -
1788642026 21.67° C 52% 1016.9 hPa 0 mm - 156 W/m² -
1788641725 22.22° C 51% 1016.8 hPa 0 mm - 126 W/m² -
1788641424 22.78° C 51% 1016.9 hPa 0 mm - 192 W/m² -
1788641119 22.78° C 52% 1016.9 hPa 0 mm - 627 W/m² -

* Rain latest hour (hover to see other rain measurements)
** Current wind speed in m/s (hover to see current wind gust speed)